This is the latest recevied weather packets stored in our database for station/object DH5RAE-11. If no packets are shown the sender has not sent any weather packets the latest 10 day(s).
| Time | Temp. | Humidity | Pressure | Rain* | Wind** | Luminosity | Snow |
|---|---|---|---|---|---|---|---|
| 1787563951 | 19.44° C | 60% | 1024.1 hPa | 0 mm | - | - | - |
| 1787563076 | 19.44° C | 61% | 1024 hPa | 0 mm | - | - | - |
| 1787562475 | 19.44° C | 62% | 1024.2 hPa | 0 mm | - | - | - |
| 1787561874 | 19.44° C | 63% | 1024.3 hPa | 0 mm | - | - | - |
| 1787561274 | 19.44° C | 65% | 1024.4 hPa | 0 mm | - | - | - |
| 1787560674 | 19.44° C | 68% | 1024.4 hPa | 0 mm | - | - | - |
| 1787560073 | 18.89° C | 70% | 1024.6 hPa | 0 mm | - | - | - |
| 1787559473 | 18.89° C | 71% | 1024.6 hPa | 0 mm | - | - | - |
| 1787558873 | 18.89° C | 72% | 1024.6 hPa | 0 mm | - | - | - |
| 1787558272 | 17.22° C | 76% | 1024.6 hPa | 0 mm | - | - | - |
| 1787557534 | 17.22° C | 85% | 1024.6 hPa | 0 mm | - | - | - |
| 1787556860 | 16.67° C | 86% | 1024.5 hPa | 0 mm | - | - | - |
| 1787556121 | 16.67° C | 89% | 1024.5 hPa | 0 mm | - | - | - |
| 1787555452 | 15° C | 91% | 1024.5 hPa | 0 mm | - | - | - |
| 1787554784 | 15° C | 91% | 1024.5 hPa | 0 mm | - | - | - |
| 1787554184 | 7.78° C | 91% | 1024.6 hPa | 0 mm | - | - | - |
| 1787553583 | 7.78° C | 91% | 1024.6 hPa | 0 mm | - | - | - |
| 1787552983 | 7.78° C | 91% | 1024.5 hPa | 0 mm | - | - | - |
| 1787552383 | 7.78° C | 91% | 1024.6 hPa | 0 mm | - | - | - |
| 1787551782 | 7.78° C | 91% | 1024.6 hPa | 0 mm | - | - | - |
| 1787551182 | 7.78° C | 91% | 1024.6 hPa | 0 mm | - | - | - |
| 1787550582 | 7.78° C | 91% | 1024.5 hPa | 0 mm | - | - | - |
| 1787549982 | 6.67° C | 90% | 1024.5 hPa | 0 mm | - | - | - |
| 1787549381 | 6.11° C | 90% | 1024.6 hPa | 0 mm | - | - | - |
| 1787548781 | 6.11° C | 90% | 1024.6 hPa | 0 mm | - | - | - |
* Rain latest hour (hover to see other rain measurements)
** Current wind speed in m/s (hover to see current wind gust speed)